Погода в Эрдэнэте

Монголия     49°02′54″N   104°07′47″E
темп.,
°C
ветер,
м/с
пор.,
м/с
влажн.,
%
обл.,
%
осадки,
мм/ч
давл.,
гПа
погр.,
м
6 марта, сб
сб623:00−12юз23600 0.0 102821
02:00−12юз236219 0.0 102821
05:00−11зюз236274 0.0 102721
08:00−10зюз236287 0.0 102821
11:00−5зсз226479 0.0 102897
14:00−2зсз125539 0.0 1026395
17:00−3ююв23770 0.0 102440
20:00−8ююз12760 0.0 102521
7 марта, вс
вс723:00−9юз12640 0.0 102521
02:00−9юз22600 0.0 102421
05:00−10зюз12580 0.0 102321
08:00−9зюз22550 0.0 102321
11:00−4зюз22600 0.0 102295
14:00−1юз23590 0.0 1019273
17:00−2ююз22730 0.0 101721
20:00−6юз22640 0.0 101921
8 марта, пн
пн823:00−6зюз336035 0.0 102021
02:00−6зюз335960 0.0 102021
05:00−7зюз235636 0.0 102021
08:00−8з235524 0.0 102321
11:00−2з226129 0.0 102292
14:000з236515 0.0 1021297
17:000юз11680 0.0 102021
20:00−5зюз11630 0.0 102321
9 марта, вт
вт923:00−6юз11570 0.0 102421
02:00−7ююв12561 0.0 102421
05:00−8ю115750 0.0 102421
08:00−7ю125975 0.0 102321
11:00−3ююз1257100 0.0 1021107
14:000зюз235498 0.0 1017343
17:00−1зюз126610 0.0 101532
20:00−4з226039 0.0 101821
10 марта, ср
ср1023:00−4зсз235265 0.0 102121
02:00−5сз335879 0.0 102424
05:00−6сз22570 0.0 102521
08:00−7вюв11620 0.0 102721
11:00−3вюв22640 0.0 1027166
14:00−2вюв23660 0.0 1024484
17:00−2вюв12700 0.0 102279
20:00−6юв12660 0.0 102321